Atlantic - Newfoundland: Past 24 Hour Conditions

 

Chevery

05:00 PM AST 25 October 2014
This table is a summary of hourly weather conditions for the past 24 hours.
Date / Time
(AST)
Wind(knots) Conditions Visibility(km) Pressure(kPa) Air tempC) Relative humidity(%) Dew pointC)
25 October 2014
17:00 NE 18 gust 28 N/A N/A 100.5 4 88 2
16:00 NE 21 gust 28 N/A N/A 100.5 4 89 2
15:00 NE 18 gust 31 N/A N/A 100.5 4 91 2
14:00 NE 19 gust 32 N/A N/A 100.5 4 90 2
13:00 ENE 18 gust 30 N/A N/A 100.5 4 90 2
12:00 NE 21 gust 30 N/A N/A 100.5 4 90 3
11:00 NE 20 gust 31 N/A N/A 100.5 4 92 3
10:00 NE 21 gust 35 N/A N/A 100.6 4 90 2
9:00 NE 22 gust 34 N/A N/A 100.6 3 91 2
8:00 NE 22 gust 35 N/A N/A 100.6 4 83 1
7:00 NE 25 gust 37 N/A N/A 100.6 4 83 1
6:00 NE 25 gust 36 N/A N/A 100.6 4 83 1
5:00 NE 27 gust 33 N/A N/A 100.6 4 85 2
4:00 NE 20 gust 31 N/A N/A 100.6 4 83 1
3:00 NE 23 gust 32 N/A N/A 100.6 4 81 1
2:00 NE 25 gust 36 N/A N/A 100.7 5 82 2
1:00 NE 19 gust 31 N/A N/A 100.7 5 86 3
0:00 NE 20 gust 30 N/A N/A 100.7 5 90 3
24 October 2014
23:00 NE 24 gust 35 N/A N/A 100.7 5 88 3
22:00 NE 21 gust 33 N/A N/A 100.8 5 87 3
21:00 NE 19 gust 31 N/A N/A 100.9 5 87 3
20:00 NE 17 gust 32 N/A N/A 100.9 6 83 3
19:00 NE 19 gust 27 N/A N/A 100.9 7 78 3
18:00 NE 17 gust 25 N/A N/A 100.9 7 79 4
17:00 NE 17 gust 23 N/A N/A 101.0 7 75 3
 
Map of Atlantic - Newfoundland marine weather areas Southwestern Grand Banks - 44138 Banquereau - 44139 Tail of the Bank - 44140 Nickerson Bank - 44251 Northeast Burgeo Bank - 44255 Blanc-Sablon Airport Cap Whittle Chevery Natashquan Airport Heath Point Miscou Island Grand Étang Ingonish Beach North Mountain St.Paul Island J.A. Douglas McCurdy Sydney Airport Charlottetown Airport East Point North Cape Argentia Bonavista Burgeo Cape Race Corner Brook Daniel's Harbour Englee Ferolle Point La Scie Port aux Basques Rocky Harbour Sagona Island St. Anthony Airport St. John's Int'l Airport St. Lawrence Stephenville Airport Twillingate Winterland Wreckhouse Cartwright Airport Mary's Harbour Grates Cove Pool's Island Marticot Island Long Pond Îles de la Madeleine Airport
Legend: buoyBuoy land stationLand Station